This demonstration page uses our WeatherBlox Daily Observations layout. Learn more.

Left ArrowRight Arrow

38.89511, -77.03637

Hourly Observations for March 23, 2021

Temp ( °F °C ) Dew Point ( °F °C ) Humidity (%) Winds ( mph kmh ) Pressure ( in mb ) Visibility ( mi km ) Precip ( " mm )
12:52 am 00:52 Mostly Clear 51 10.6 41 5 69 69 NNE 5 7 30.26 1025 10 16.0934 0 0
1:52 am 01:52 Mostly Clear 49 9.4 40 4.4 71 71 NE 6 9 30.26 1025 10 16.0934 0 0
2:52 am 02:52 Partly Cloudy 48 8.9 38 3.3 68 68 NE 7 11 30.25 1024 10 16.0934 0 0
3:52 am 03:52 Partly Cloudy 47 8.3 38 3.3 71 71 NNE 8 13 30.25 1024 10 16.0934 0 0
4:52 am 04:52 Partly Cloudy 47 8.3 38 3.3 71 71 NNE 7 11 30.24 1024 10 16.0934 0 0
5:52 am 05:52 Mostly Cloudy 46 7.8 38 3.3 73 73 NNE 7 11 30.24 1024 10 16.0934 0 0
6:52 am 06:52 Partly Cloudy 46 7.8 37 2.8 71 71 NNE 7 11 30.24 1024 10 16.0934 0 0
7:52 am 07:52 Mostly Cloudy 48 8.9 37 2.8 66 66 N 8 13 30.27 1025 10 16.0934 0 0
8:52 am 08:52 Mostly Cloudy 52 11.1 38 3.3 59 59 NNE 7 11 30.27 1025 10 16.0934 0 0
9:52 am 09:52 Mostly Cloudy 54 12.2 41 5 62 62 NE 7 11 30.28 1026 10 16.0934 0 0
10:52 am 10:52 Mostly Cloudy 59 15 43 6.1 56 56 NNE 8 13 30.28 1025 10 16.0934 0 0
11:52 am 11:52 Cloudy 62 16.7 44 6.7 52 52 ENE 7 11 30.25 1025 10 16.0934 0 0
12:52 pm 12:52 Cloudy 65 18.3 45 7.2 49 49 ENE 9 15 30.25 1024 10 16.0934 0 0
1:52 pm 13:52 Mostly Cloudy 66 18.9 47 8.3 50 50 E 8 13 30.22 1023 10 16.0934 0 0
2:52 pm 14:52 Cloudy 68 20 47 8.3 47 47 E 7 11 30.2 1023 10 16.0934 0 0
3:52 pm 15:52 Mostly Cloudy 66 18.9 46 7.8 49 49 E 8 13 30.18 1022 10 16.0934 0 0
4:52 pm 16:52 Mostly Cloudy 65 18.3 46 7.8 51 51 E 13 20 30.17 1022 10 16.0934 0 0
5:52 pm 17:52 Mostly Cloudy 64 17.8 45 7.2 50 50 ESE 9 15 30.17 1022 10 16.0934 0 0
6:52 pm 18:52 Mostly Cloudy 63 17.2 47 8.3 56 56 ESE 10 17 30.17 1022 10 16.0934 0 0
7:52 pm 19:52 Cloudy 61 16.1 48 8.9 63 63 E 10 17 30.16 1021 10 16.0934 0 0
8:52 pm 20:52 Cloudy 61 16.1 48 8.9 63 63 ENE 8 13 30.18 1022 10 16.0934 0 0
9:52 pm 21:52 Cloudy 59 15 49 9.4 69 69 E 9 15 30.18 1022 10 16.0934 0 0
10:52 pm 22:52 Cloudy 58 14.4 50 10 75 75 E 8 13 30.17 1022 10 16.0934 0 0
11:52 pm 23:52 Cloudy 58 14.4 51 10.6 78 78 E 6 9 30.17 1022 10 16.0934 0 0

Powered by AerisWeather